Location: Lucerne Valley
(34.4439°N, 116.9669°E)
Time: 10:52:12
(UTC-08:00)

Envisat - Pass Details

Date: 07 October 2017
Orbit: 764 x 766 km, 98.2° (Epoch: 16 December)

Event Time Altitude Azimuth Distance (km) Brightness Sun altitude
Exits shadow 04:56:44 42° 10° (N) 1,083 3.7 -27.2°
Drops below altitude 10° 05:00:09 10° 354° (N) 2,307 5.7 -27.8°
Sets 05:02:29 0° 352° (N) 3,237 6.5 -28.3°
